NORTHERN QUEENS  -  Freeze Warning Freeze Warning        SOUTHERN QUEENS  -  Freeze Warning Freeze Warning      

Active alerts

Northern Queens
  Details for Northern Queens Freeze Warning
Southern Queens
  Details for Southern Queens Freeze Warning


WXM80 ListenWXM80 Stop

You find our weather info also at:

UK Metoffice

WeatherCloud

Weather Underground

Northeastern Weather Network

AWEKAS

Citizen Weather Observer Program (CWOP)

HAMweather, WeatherForYou, PWS Weather


Weather Underground History page Text

Daily Summary for January 30, 2017 Units:  English    Metric   Both
« Previous Day
Next Day »
Daily Weekly Monthly Yearly Custom
  High: Low: Average:
Temperature: 37.5 °F 29.4 °F 33.2 °F
Dew Point: 26.3 °F 11.5 °F 19.6 °F
Humidity: 80 % 45 % 58 %
Wind Speed: 8.5 mph 0.0 mph 3.8 mph
Wind Gust: 16.0 mph - -
Wind:- - SW
Pressure: 29.94 in 29.69 in -
Precipitation: 0.00 in    
Historical Graphs
 
 
Tabular Data for January 30, 2017
Time Temperature Dew Point Pressure Wind Wind Speed Wind Gust Humidity Rainfall Rate (Hourly)
00:01 30.6 °F 21.3 °F 29.70 in SW 1.0 mph 3.0 mph 68 % 0.00 in
00:06 30.6 °F 21.3 °F 29.70 in SW 1.3 mph 2.3 mph 68 % 0.00 in
00:11 30.5 °F 21.2 °F 29.70 in SW 1.0 mph 1.2 mph 68 % 0.00 in
00:16 30.5 °F 21.5 °F 29.70 in SW 0.2 mph 1.2 mph 69 % 0.00 in
00:21 30.6 °F 21.6 °F 29.70 in Calm     69 % 0.00 in
00:27 30.5 °F 21.5 °F 29.70 in Calm   1.2 mph 69 % 0.00 in
00:32 30.5 °F 21.5 °F 29.70 in Calm     69 % 0.00 in
00:37 30.4 °F 21.4 °F 29.70 in Calm     69 % 0.00 in
00:42 30.4 °F 21.8 °F 29.70 in Calm     70 % 0.00 in
00:47 30.3 °F 21.7 °F 29.69 in Calm   1.2 mph 70 % 0.00 in
00:52 30.3 °F 21.7 °F 29.70 in SW 0.1 mph 1.2 mph 70 % 0.00 in
00:57 30.2 °F 21.9 °F 29.69 in SW 0.1 mph 1.2 mph 71 % 0.00 in
01:02 30.2 °F 22.3 °F 29.69 in SW 0.3 mph 1.2 mph 72 % 0.00 in
01:07 30.2 °F 22.6 °F 29.69 in SW 0.1 mph 1.2 mph 73 % 0.00 in
01:12 30.1 °F 22.5 °F 29.69 in SW 0.1 mph 1.2 mph 73 % 0.00 in
01:17 30.1 °F 22.8 °F 29.69 in SW 0.1 mph 1.0 mph 74 % 0.00 in
01:22 30.1 °F 23.1 °F 29.69 in SW 0.3 mph 1.2 mph 75 % 0.00 in
01:27 30.0 °F 23.0 °F 29.69 in SW 1.6 mph 2.3 mph 75 % 0.00 in
01:32 30.0 °F 23.7 °F 29.70 in Calm   1.2 mph 77 % 0.00 in
01:37 30.0 °F 23.7 °F 29.70 in Calm   1.0 mph 77 % 0.00 in
01:42 30.0 °F 23.7 °F 29.70 in Calm     77 % 0.00 in
01:47 29.9 °F 23.6 °F 29.70 in Calm     77 % 0.00 in
01:53 29.8 °F 23.2 °F 29.70 in Calm     76 % 0.00 in
01:58 29.7 °F 23.1 °F 29.69 in Calm     76 % 0.00 in
02:03 29.6 °F 23.0 °F 29.69 in Calm     76 % 0.00 in
02:08 29.5 °F 22.9 °F 29.69 in Calm     76 % 0.00 in
02:13 29.5 °F 22.9 °F 29.69 in Calm   1.2 mph 76 % 0.00 in
02:18 29.4 °F 23.1 °F 29.69 in Calm   1.2 mph 77 % 0.00 in
02:23 29.4 °F 23.1 °F 29.69 in Calm     77 % 0.00 in
02:28 29.4 °F 23.4 °F 29.69 in Calm     78 % 0.00 in
02:33 29.5 °F 23.5 °F 29.70 in WNW 0.2 mph 1.2 mph 78 % 0.00 in
02:38 29.6 °F 24.2 °F 29.70 in North 2.2 mph 3.5 mph 80 % 0.00 in
02:43 30.1 °F 24.7 °F 29.70 in North 0.5 mph 1.2 mph 80 % 0.00 in
02:48 30.4 °F 25.0 °F 29.70 in NNE 4.1 mph 6.0 mph 80 % 0.00 in
02:53 30.6 °F 24.6 °F 29.69 in NNE 3.5 mph 4.6 mph 78 % 0.00 in
02:58 30.9 °F 24.5 °F 29.69 in NNE 3.3 mph 4.6 mph 77 % 0.00 in
03:03 31.2 °F 24.8 °F 29.69 in NNE 3.3 mph 6.9 mph 77 % 0.00 in
03:08 31.6 °F 25.2 °F 29.69 in North 3.9 mph 5.0 mph 77 % 0.00 in
03:13 32.0 °F 25.6 °F 29.70 in North 2.7 mph 5.0 mph 77 % 0.00 in
03:18 32.4 °F 26.0 °F 29.70 in NNW 0.8 mph 3.5 mph 77 % 0.00 in
03:23 32.7 °F 26.3 °F 29.69 in North 3.2 mph 4.6 mph 77 % 0.00 in
03:28 32.8 °F 26.1 °F 29.70 in North 3.0 mph 6.0 mph 76 % 0.00 in
03:34 33.0 °F 25.9 °F 29.70 in North 3.0 mph 7.0 mph 75 % 0.00 in
03:39 33.2 °F 26.1 °F 29.70 in North 3.0 mph 6.0 mph 75 % 0.00 in
03:43 33.2 °F 25.8 °F 29.70 in North 2.0 mph 5.0 mph 74 % 0.00 in
03:49 33.3 °F 25.6 °F 29.70 in North 3.0 mph 6.0 mph 73 % 0.00 in
03:54 33.4 °F 25.3 °F 29.70 in North 2.1 mph 3.5 mph 72 % 0.00 in
03:59 33.4 °F 25.3 °F 29.70 in North 2.0 mph 3.5 mph 72 % 0.00 in
04:04 33.3 °F 24.9 °F 29.70 in NNE 4.1 mph 4.6 mph 71 % 0.00 in
04:09 33.3 °F 24.9 °F 29.70 in North 3.8 mph 8.1 mph 71 % 0.00 in
04:14 33.3 °F 24.6 °F 29.70 in North 2.8 mph 4.6 mph 70 % 0.00 in
04:19 33.3 °F 24.9 °F 29.70 in North 0.5 mph 3.0 mph 71 % 0.00 in
04:24 33.3 °F 25.2 °F 29.71 in North 3.6 mph 5.8 mph 72 % 0.00 in
04:29 33.2 °F 25.1 °F 29.71 in NNE 3.4 mph 6.0 mph 72 % 0.00 in
04:34 33.2 °F 25.1 °F 29.71 in NNE 1.9 mph 5.8 mph 72 % 0.00 in
04:39 33.2 °F 25.1 °F 29.71 in NNW 3.4 mph 5.8 mph 72 % 0.00 in
04:44 33.1 °F 25.1 °F 29.71 in North 4.7 mph 6.0 mph 72 % 0.00 in
04:49 33.0 °F 25.0 °F 29.71 in North 1.9 mph 6.0 mph 72 % 0.00 in
04:54 33.0 °F 25.0 °F 29.72 in NNW 3.2 mph 6.9 mph 72 % 0.00 in
04:59 32.9 °F 24.9 °F 29.71 in North 2.5 mph 5.8 mph 72 % 0.00 in
05:04 32.8 °F 24.4 °F 29.72 in North 1.8 mph 7.0 mph 71 % 0.00 in
05:09 32.8 °F 24.4 °F 29.71 in NNE 2.3 mph 4.6 mph 71 % 0.00 in
05:14 32.8 °F 24.4 °F 29.72 in NNE 3.2 mph 6.9 mph 71 % 0.00 in
05:19 32.7 °F 24.0 °F 29.72 in NNW 6.3 mph 11.5 mph 70 % 0.00 in
05:24 32.6 °F 23.9 °F 29.72 in NNE 4.7 mph 10.4 mph 70 % 0.00 in
05:29 32.6 °F 24.2 °F 29.72 in North 4.4 mph 9.2 mph 71 % 0.00 in
05:35 32.5 °F 24.1 °F 29.72 in North 4.0 mph 6.9 mph 71 % 0.00 in
05:40 32.5 °F 24.1 °F 29.72 in North 0.7 mph 3.5 mph 71 % 0.00 in
05:45 32.4 °F 24.0 °F 29.72 in NNE 5.7 mph 10.4 mph 71 % 0.00 in
05:50 32.4 °F 24.0 °F 29.72 in North 4.8 mph 10.4 mph 71 % 0.00 in
05:55 32.3 °F 23.9 °F 29.72 in NNE 6.3 mph 9.2 mph 71 % 0.00 in
06:00 32.3 °F 23.9 °F 29.72 in North 5.1 mph 10.4 mph 71 % 0.00 in
06:05 32.2 °F 23.8 °F 29.72 in NNE 6.0 mph 6.0 mph 71 % 0.00 in
06:10 32.1 °F 23.8 °F 29.72 in NE 5.9 mph 9.2 mph 71 % 0.00 in
06:15 32.1 °F 23.8 °F 29.72 in NE 4.1 mph 6.9 mph 71 % 0.00 in
06:20 32.0 °F 23.7 °F 29.72 in NNE 5.9 mph 9.2 mph 71 % 0.00 in
06:25 32.0 °F 23.3 °F 29.73 in NNE 5.5 mph 6.9 mph 70 % 0.00 in
06:30 31.9 °F 23.6 °F 29.73 in NE 5.1 mph 8.0 mph 71 % 0.00 in
06:35 31.9 °F 23.2 °F 29.73 in NNE 4.9 mph 10.4 mph 70 % 0.00 in
06:40 31.9 °F 23.2 °F 29.73 in NNE 4.7 mph 11.5 mph 70 % 0.00 in
06:45 31.9 °F 22.9 °F 29.73 in North 4.6 mph 6.9 mph 69 % 0.00 in
06:50 31.9 °F 23.2 °F 29.73 in NNE 5.2 mph 6.9 mph 70 % 0.00 in
06:55 31.9 °F 23.2 °F 29.73 in North 5.2 mph 7.0 mph 70 % 0.00 in
07:00 31.9 °F 23.2 °F 29.73 in North 3.7 mph 5.8 mph 70 % 0.00 in
07:06 31.9 °F 23.2 °F 29.73 in NNE 4.9 mph 5.8 mph 70 % 0.00 in
07:11 31.9 °F 23.2 °F 29.73 in NNE 3.1 mph 4.6 mph 70 % 0.00 in
07:16 31.9 °F 22.9 °F 29.73 in NNE 4.7 mph 9.2 mph 69 % 0.00 in
07:21 31.9 °F 22.9 °F 29.73 in NNE 3.8 mph 6.9 mph 69 % 0.00 in
07:26 32.0 °F 23.0 °F 29.73 in North 4.4 mph 6.0 mph 69 % 0.00 in
07:31 32.0 °F 23.3 °F 29.73 in North 3.8 mph 6.9 mph 70 % 0.00 in
07:36 32.1 °F 23.4 °F 29.73 in NNE 6.4 mph 9.2 mph 70 % 0.00 in
07:41 32.1 °F 23.1 °F 29.73 in North 5.5 mph 8.1 mph 69 % 0.00 in
07:46 32.1 °F 22.7 °F 29.73 in North 5.5 mph 9.2 mph 68 % 0.00 in
07:51 32.2 °F 22.5 °F 29.73 in North 4.1 mph 7.0 mph 67 % 0.00 in
07:56 32.2 °F 22.5 °F 29.73 in North 6.7 mph 9.0 mph 67 % 0.00 in
08:01 32.3 °F 22.6 °F 29.73 in North 3.3 mph 5.0 mph 67 % 0.00 in
08:07 32.4 °F 22.7 °F 29.73 in North 1.8 mph 4.6 mph 67 % 0.00 in
08:12 32.6 °F 22.8 °F 29.73 in NNE 4.0 mph 9.2 mph 67 % 0.00 in
08:17 32.9 °F 23.1 °F 29.74 in North 3.6 mph 8.1 mph 67 % 0.00 in
08:22 33.1 °F 23.3 °F 29.74 in NE 4.1 mph 5.8 mph 67 % 0.00 in
08:27 33.2 °F 23.4 °F 29.74 in North 1.2 mph 3.5 mph 67 % 0.00 in
08:32 33.5 °F 23.7 °F 29.74 in NNE 4.8 mph 5.8 mph 67 % 0.00 in
08:37 33.7 °F 24.3 °F 29.74 in NNW 4.2 mph 6.9 mph 68 % 0.00 in
08:42 33.9 °F 24.4 °F 29.74 in North 4.1 mph 6.9 mph 68 % 0.00 in
08:47 34.1 °F 24.6 °F 29.74 in NNW 0.6 mph 4.6 mph 68 % 0.00 in
08:52 34.2 °F 24.7 °F 29.74 in North 5.3 mph 8.1 mph 68 % 0.00 in
08:57 34.2 °F 23.7 °F 29.74 in North 5.1 mph 8.1 mph 65 % 0.00 in
09:02 34.3 °F 23.7 °F 29.75 in North 4.5 mph 8.1 mph 65 % 0.00 in
09:07 34.2 °F 22.5 °F 29.75 in NNE 6.5 mph 8.1 mph 62 % 0.00 in
09:12 34.1 °F 22.0 °F 29.75 in NNE 5.4 mph 6.9 mph 61 % 0.00 in
09:17 34.1 °F 21.7 °F 29.75 in NNE 3.0 mph 5.8 mph 60 % 0.00 in
09:22 34.0 °F 21.2 °F 29.75 in North 4.3 mph 10.4 mph 59 % 0.00 in
09:28 34.0 °F 21.6 °F 29.75 in NNE 4.0 mph 8.1 mph 60 % 0.00 in
09:33 33.9 °F 21.5 °F 29.76 in North 4.4 mph 6.9 mph 60 % 0.00 in
09:38 33.9 °F 21.9 °F 29.76 in NE 4.0 mph 6.9 mph 61 % 0.00 in
09:43 34.0 °F 22.0 °F 29.76 in North 2.4 mph 3.5 mph 61 % 0.00 in
09:48 34.1 °F 21.7 °F 29.75 in NNW 2.9 mph 6.0 mph 60 % 0.00 in
09:53 34.2 °F 21.7 °F 29.75 in North 4.5 mph 5.8 mph 60 % 0.00 in
09:58 34.3 °F 22.2 °F 29.76 in North 2.4 mph 3.5 mph 61 % 0.00 in
10:03 34.3 °F 21.4 °F 29.76 in NW 2.0 mph 3.5 mph 59 % 0.00 in
10:08 34.4 °F 21.5 °F 29.76 in NW 1.0 mph 3.5 mph 59 % 0.00 in
10:13 34.4 °F 21.9 °F 29.76 in NW 0.6 mph 2.3 mph 60 % 0.00 in
10:14 34.5 °F 22.0 °F 29.76 in NW 0.8 mph 2.3 mph 60 % 0.00 in
10:19 34.6 °F 22.1 °F 29.76 in North 1.9 mph 3.5 mph 60 % 0.00 in
10:24 34.8 °F 21.9 °F 29.76 in NNW 0.4 mph 2.3 mph 59 % 0.00 in
10:29 35.2 °F 22.3 °F 29.76 in North 4.0 mph 4.6 mph 59 % 0.00 in
10:34 35.7 °F 21.5 °F 29.76 in Calm   1.2 mph 56 % 0.00 in
10:39 35.9 °F 21.3 °F 29.76 in WNW 1.8 mph 3.5 mph 55 % 0.00 in
10:44 36.0 °F 21.4 °F 29.76 in NW 0.9 mph 2.3 mph 55 % 0.00 in
10:49 36.0 °F 21.4 °F 29.76 in NNW 0.1 mph 2.0 mph 55 % 0.00 in
10:54 36.0 °F 21.4 °F 29.76 in NW 2.2 mph 3.5 mph 55 % 0.00 in
10:59 35.9 °F 20.9 °F 29.76 in NW 2.8 mph 5.0 mph 54 % 0.00 in
11:04 35.9 °F 21.7 °F 29.76 in West 2.0 mph 5.0 mph 56 % 0.00 in
11:09 35.8 °F 19.4 °F 29.76 in NW 5.0 mph 8.1 mph 51 % 0.00 in
11:15 35.7 °F 19.8 °F 29.75 in NW 0.5 mph 3.5 mph 52 % 0.00 in
11:19 35.7 °F 19.8 °F 29.75 in WNW 2.9 mph 9.0 mph 52 % 0.00 in
11:20 35.7 °F 19.8 °F 29.75 in WNW 3.9 mph 9.2 mph 52 % 0.00 in
11:21 35.8 °F 19.4 °F 29.75 in WNW 3.1 mph 9.2 mph 51 % 0.00 in
11:25 35.8 °F 19.0 °F 29.75 in NW 2.4 mph 4.6 mph 50 % 0.00 in
11:26 35.8 °F 19.0 °F 29.75 in NNW 2.9 mph 4.6 mph 50 % 0.00 in
11:31 35.8 °F 19.0 °F 29.75 in NNW 3.1 mph 5.8 mph 50 % 0.00 in
11:36 35.9 °F 18.6 °F 29.75 in NW 1.8 mph 6.9 mph 49 % 0.00 in
11:41 35.9 °F 18.6 °F 29.75 in NW 4.2 mph 5.8 mph 49 % 0.00 in
11:46 36.0 °F 18.7 °F 29.75 in WNW 3.1 mph 6.9 mph 49 % 0.00 in
11:57 36.1 °F 19.2 °F 29.75 in NW 3.2 mph 4.6 mph 50 % 0.00 in
12:02 36.2 °F 18.9 °F 29.74 in WNW 2.7 mph 5.0 mph 49 % 0.00 in
12:08 36.2 °F 18.9 °F 29.74 in WNW 4.9 mph 8.1 mph 49 % 0.00 in
12:13 36.2 °F 17.9 °F 29.74 in WNW 2.4 mph 5.8 mph 47 % 0.00 in
12:18 36.2 °F 17.9 °F 29.74 in WNW 3.0 mph 7.0 mph 47 % 0.00 in
12:23 36.3 °F 17.0 °F 29.73 in West 3.1 mph 11.5 mph 45 % 0.00 in
12:28 36.4 °F 18.6 °F 29.74 in NNW 5.1 mph 5.8 mph 48 % 0.00 in
12:35 36.4 °F 18.1 °F 29.73 in WNW 6.4 mph 11.5 mph 47 % 0.00 in
12:40 36.5 °F 18.2 °F 29.74 in WSW 4.7 mph 11.5 mph 47 % 0.00 in
12:45 36.5 °F 17.7 °F 29.73 in NNW 5.1 mph 11.5 mph 46 % 0.00 in
12:50 36.4 °F 17.6 °F 29.73 in West 8.2 mph 13.8 mph 46 % 0.00 in
12:55 36.2 °F 17.4 °F 29.73 in WNW 3.0 mph 8.1 mph 46 % 0.00 in
13:03 36.2 °F 17.9 °F 29.73 in WNW 4.2 mph 10.4 mph 47 % 0.00 in
13:08 36.4 °F 18.1 °F 29.72 in North 5.3 mph 10.4 mph 47 % 0.00 in
13:13 36.5 °F 17.1 °F 29.72 in NW 6.1 mph 9.2 mph 45 % 0.00 in
13:18 36.6 °F 18.2 °F 29.73 in NW 5.7 mph 10.4 mph 47 % 0.00 in
13:23 36.8 °F 17.9 °F 29.73 in WNW 5.0 mph 11.5 mph 46 % 0.00 in
13:28 37.1 °F 19.2 °F 29.73 in WNW 4.7 mph 8.1 mph 48 % 0.00 in
13:33 37.2 °F 18.3 °F 29.73 in NW 6.1 mph 14.0 mph 46 % 0.00 in
13:38 37.1 °F 17.7 °F 29.73 in West 4.8 mph 9.2 mph 45 % 0.00 in
13:43 37.0 °F 18.6 °F 29.73 in WNW 5.2 mph 9.2 mph 47 % 0.00 in
13:48 36.9 °F 18.0 °F 29.73 in NW 5.2 mph 11.5 mph 46 % 0.00 in
13:53 37.0 °F 18.6 °F 29.73 in NW 4.6 mph 6.9 mph 47 % 0.00 in
13:58 37.4 °F 20.0 °F 29.73 in WNW 5.0 mph 9.2 mph 49 % 0.00 in
14:03 37.5 °F 18.6 °F 29.72 in NW 6.5 mph 10.4 mph 46 % 0.00 in
14:08 37.4 °F 18.5 °F 29.72 in NNE 4.6 mph 8.1 mph 46 % 0.00 in
14:13 37.4 °F 18.5 °F 29.72 in WNW 5.1 mph 10.4 mph 46 % 0.00 in
14:18 37.3 °F 18.9 °F 29.72 in NW 5.9 mph 11.5 mph 47 % 0.00 in
14:23 37.2 °F 18.3 °F 29.72 in NW 5.2 mph 8.1 mph 46 % 0.00 in
14:28 37.1 °F 18.7 °F 29.73 in WNW 8.5 mph 11.5 mph 47 % 0.00 in
14:33 37.0 °F 18.6 °F 29.73 in WNW 4.3 mph 11.0 mph 47 % 0.00 in
14:38 36.8 °F 17.4 °F 29.73 in West 8.4 mph 15.0 mph 45 % 0.00 in
14:43 36.6 °F 19.2 °F 29.73 in NW 4.3 mph 8.0 mph 49 % 0.00 in
14:48 36.5 °F 18.2 °F 29.73 in WNW 7.3 mph 13.8 mph 47 % 0.00 in
14:53 36.4 °F 18.1 °F 29.73 in NW 5.8 mph 11.5 mph 47 % 0.00 in
14:58 36.2 °F 17.9 °F 29.73 in West 4.7 mph 6.9 mph 47 % 0.00 in
15:03 36.2 °F 18.8 °F 29.74 in WNW 7.0 mph 12.0 mph 49 % 0.00 in
15:08 36.0 °F 17.7 °F 29.74 in NW 3.0 mph 8.0 mph 47 % 0.00 in
15:13 36.0 °F 18.2 °F 29.74 in NW 3.0 mph 10.0 mph 48 % 0.00 in
15:18 35.9 °F 18.1 °F 29.74 in NW 5.7 mph 10.4 mph 48 % 0.00 in
15:23 35.8 °F 18.0 °F 29.74 in WNW 3.0 mph 10.0 mph 48 % 0.00 in
15:28 35.7 °F 17.9 °F 29.75 in NW 7.0 mph 13.0 mph 48 % 0.00 in
15:33 35.7 °F 18.4 °F 29.75 in NW 7.0 mph 14.0 mph 49 % 0.00 in
15:38 35.7 °F 17.9 °F 29.75 in NW 5.8 mph 11.5 mph 48 % 0.00 in
15:43 35.6 °F 17.8 °F 29.75 in NW 5.0 mph 12.0 mph 48 % 0.00 in
15:48 35.6 °F 17.8 °F 29.76 in NW 7.0 mph 13.0 mph 48 % 0.00 in
15:53 35.5 °F 17.7 °F 29.76 in NW 2.0 mph 11.0 mph 48 % 0.00 in
15:58 35.3 °F 18.0 °F 29.76 in WNW 6.2 mph 10.4 mph 49 % 0.00 in
16:03 35.3 °F 17.5 °F 29.76 in NNW 7.0 mph 13.0 mph 48 % 0.00 in
16:08 35.2 °F 17.0 °F 29.76 in NW 5.0 mph 12.0 mph 47 % 0.00 in
16:13 35.1 °F 17.4 °F 29.76 in NW 5.0 mph 10.0 mph 48 % 0.00 in
16:18 35.0 °F 18.2 °F 29.76 in NW 5.0 mph 9.0 mph 50 % 0.00 in
16:23 34.8 °F 17.1 °F 29.76 in NW 5.0 mph 10.0 mph 48 % 0.00 in
16:28 34.8 °F 17.6 °F 29.77 in NW 5.0 mph 10.0 mph 49 % 0.00 in
16:33 34.7 °F 17.5 °F 29.77 in WNW 3.2 mph 10.4 mph 49 % 0.00 in
16:38 34.6 °F 16.9 °F 29.77 in NW 5.0 mph 12.0 mph 48 % 0.00 in
16:43 34.5 °F 17.3 °F 29.77 in NW 3.0 mph 12.0 mph 49 % 0.00 in
16:48 34.4 °F 18.1 °F 29.78 in WNW 6.0 mph 12.0 mph 51 % 0.00 in
16:53 34.3 °F 17.1 °F 29.78 in WNW 3.0 mph 10.0 mph 49 % 0.00 in
16:59 34.2 °F 17.0 °F 29.78 in WNW 4.7 mph 12.0 mph 49 % 0.00 in
17:04 34.2 °F 17.0 °F 29.78 in WNW 3.8 mph 8.1 mph 49 % 0.00 in
17:06 34.1 °F 16.4 °F 29.78 in NW 3.6 mph 11.5 mph 48 % 0.00 in
17:12 34.0 °F 16.8 °F 29.78 in WNW 2.6 mph 10.4 mph 49 % 0.00 in
17:17 34.0 °F 17.3 °F 29.79 in WNW 5.0 mph 9.2 mph 50 % 0.00 in
17:22 33.9 °F 17.2 °F 29.79 in WNW 4.5 mph 13.0 mph 50 % 0.00 in
17:27 33.9 °F 16.7 °F 29.79 in WNW 2.9 mph 11.5 mph 49 % 0.00 in
17:32 33.8 °F 16.6 °F 29.80 in West 6.3 mph 11.5 mph 49 % 0.00 in
17:37 33.7 °F 16.5 °F 29.80 in WNW 5.7 mph 13.8 mph 49 % 0.00 in
17:42 33.6 °F 17.4 °F 29.81 in NW 1.7 mph 9.2 mph 51 % 0.00 in
17:47 33.5 °F 16.8 °F 29.81 in NNW 2.6 mph 4.6 mph 50 % 0.00 in
17:52 33.4 °F 16.7 °F 29.81 in WNW 3.8 mph 7.0 mph 50 % 0.00 in
17:57 33.4 °F 16.3 °F 29.81 in NW 6.2 mph 12.0 mph 49 % 0.00 in
18:02 33.4 °F 16.3 °F 29.82 in WNW 5.3 mph 11.0 mph 49 % 0.00 in
18:07 33.3 °F 17.1 °F 29.82 in West 5.3 mph 9.0 mph 51 % 0.00 in
18:12 33.3 °F 17.1 °F 29.82 in NW 3.7 mph 5.8 mph 51 % 0.00 in
18:17 33.3 °F 17.1 °F 29.82 in WNW 6.5 mph 11.5 mph 51 % 0.00 in
18:22 33.2 °F 16.5 °F 29.83 in North 4.7 mph 6.9 mph 50 % 0.00 in
18:27 33.2 °F 16.5 °F 29.83 in NW 3.7 mph 6.9 mph 50 % 0.00 in
18:32 33.2 °F 16.5 °F 29.83 in NW 6.7 mph 15.0 mph 50 % 0.00 in
18:37 33.2 °F 16.1 °F 29.83 in NNW 6.9 mph 10.4 mph 49 % 0.00 in
18:42 33.2 °F 15.6 °F 29.84 in NW 4.3 mph 8.1 mph 48 % 0.00 in
18:47 33.2 °F 16.5 °F 29.84 in West 6.7 mph 9.0 mph 50 % 0.00 in
18:52 33.2 °F 16.1 °F 29.85 in WNW 5.8 mph 11.5 mph 49 % 0.00 in
18:57 33.2 °F 15.6 °F 29.85 in WNW 2.2 mph 12.7 mph 48 % 0.00 in
19:02 33.2 °F 15.6 °F 29.85 in WNW 5.0 mph 10.0 mph 48 % 0.00 in
19:07 33.1 °F 15.5 °F 29.85 in WNW 4.0 mph 11.5 mph 48 % 0.00 in
19:12 33.1 °F 15.0 °F 29.85 in NNW 5.6 mph 11.5 mph 47 % 0.00 in
19:17 33.1 °F 16.0 °F 29.86 in NW 3.7 mph 10.4 mph 49 % 0.00 in
19:23 33.0 °F 16.8 °F 29.86 in NNW 4.2 mph 13.0 mph 51 % 0.00 in
19:28 32.9 °F 15.8 °F 29.86 in NNW 7.5 mph 15.0 mph 49 % 0.00 in
19:33 32.9 °F 15.8 °F 29.86 in NW 4.2 mph 8.1 mph 49 % 0.00 in
19:38 32.9 °F 16.3 °F 29.86 in NW 5.3 mph 6.9 mph 50 % 0.00 in
19:43 32.9 °F 15.8 °F 29.86 in WNW 5.5 mph 11.5 mph 49 % 0.00 in
19:48 32.8 °F 16.2 °F 29.86 in West 1.6 mph 11.5 mph 50 % 0.00 in
19:53 32.8 °F 15.7 °F 29.87 in NW 6.7 mph 12.7 mph 49 % 0.00 in
19:58 32.7 °F 15.6 °F 29.87 in NNW 2.1 mph 3.5 mph 49 % 0.00 in
20:03 32.6 °F 16.0 °F 29.87 in NW 2.8 mph 9.0 mph 50 % 0.00 in
20:08 32.6 °F 15.5 °F 29.87 in NNW 2.4 mph 4.6 mph 49 % 0.00 in
20:13 32.5 °F 15.0 °F 29.88 in WNW 8.2 mph 13.8 mph 48 % 0.00 in
20:18 32.5 °F 14.5 °F 29.88 in WNW 4.9 mph 11.0 mph 47 % 0.00 in
20:23 32.5 °F 15.0 °F 29.88 in NW 3.6 mph 9.2 mph 48 % 0.00 in
20:28 32.4 °F 15.3 °F 29.88 in WNW 1.9 mph 8.1 mph 49 % 0.00 in
20:33 32.4 °F 15.3 °F 29.88 in NW 7.1 mph 9.2 mph 49 % 0.00 in
20:38 32.3 °F 15.7 °F 29.88 in NW 6.2 mph 9.2 mph 50 % 0.00 in
20:43 32.2 °F 16.1 °F 29.89 in North 4.4 mph 9.2 mph 51 % 0.00 in
20:48 32.1 °F 16.0 °F 29.89 in NNW 5.6 mph 9.2 mph 51 % 0.00 in
20:53 32.0 °F 15.0 °F 29.89 in WSW 5.6 mph 7.0 mph 49 % 0.00 in
20:58 31.9 °F 15.3 °F 29.89 in NW 6.4 mph 15.0 mph 50 % 0.00 in
21:03 31.8 °F 14.3 °F 29.90 in WNW 4.9 mph 15.0 mph 48 % 0.00 in
21:08 31.8 °F 14.3 °F 29.90 in NW 6.5 mph 10.0 mph 48 % 0.00 in
21:13 31.7 °F 14.2 °F 29.90 in NW 4.5 mph 10.4 mph 48 % 0.00 in
21:18 31.7 °F 14.7 °F 29.90 in WNW 6.0 mph 9.2 mph 49 % 0.00 in
21:23 31.6 °F 14.6 °F 29.90 in WNW 8.0 mph 13.0 mph 49 % 0.00 in
21:28 31.5 °F 13.6 °F 29.91 in WNW 6.0 mph 14.0 mph 47 % 0.00 in
21:33 31.5 °F 13.6 °F 29.91 in WNW 7.0 mph 12.0 mph 47 % 0.00 in
21:38 31.4 °F 13.5 °F 29.91 in NW 7.0 mph 14.0 mph 47 % 0.00 in
21:43 31.4 °F 14.4 °F 29.91 in WNW 5.0 mph 9.0 mph 49 % 0.00 in
21:48 31.3 °F 14.3 °F 29.92 in WNW 5.0 mph 12.0 mph 49 % 0.00 in
21:53 31.2 °F 14.2 °F 29.92 in WNW 3.0 mph 13.0 mph 49 % 0.00 in
21:58 31.1 °F 14.1 °F 29.92 in WNW 5.3 mph 10.4 mph 49 % 0.00 in
22:03 31.1 °F 13.7 °F 29.92 in WNW 5.0 mph 12.0 mph 48 % 0.00 in
22:08 31.0 °F 13.6 °F 29.92 in WNW 2.0 mph 10.0 mph 48 % 0.00 in
22:13 30.9 °F 13.5 °F 29.92 in WNW 2.0 mph 13.0 mph 48 % 0.00 in
22:18 30.8 °F 13.4 °F 29.93 in NW 6.0 mph 10.0 mph 48 % 0.00 in
22:23 30.8 °F 13.4 °F 29.93 in NW 3.0 mph 8.0 mph 48 % 0.00 in
22:28 30.8 °F 13.4 °F 29.93 in WNW 6.0 mph 12.0 mph 48 % 0.00 in
22:33 30.7 °F 12.9 °F 29.93 in WNW 5.0 mph 12.0 mph 47 % 0.00 in
22:38 30.7 °F 12.8 °F 29.93 in West 5.0 mph 12.0 mph 47 % 0.00 in
22:43 30.7 °F 12.3 °F 29.93 in WNW 6.0 mph 16.0 mph 46 % 0.00 in
22:48 30.7 °F 12.3 °F 29.93 in NW 6.0 mph 13.0 mph 46 % 0.00 in
22:53 30.7 °F 13.3 °F 29.93 in NW 3.9 mph 11.0 mph 48 % 0.00 in
22:59 30.6 °F 13.2 °F 29.93 in WNW 4.0 mph 9.2 mph 48 % 0.00 in
23:04 30.5 °F 12.2 °F 29.93 in West 7.1 mph 12.7 mph 46 % 0.00 in
23:09 30.5 °F 12.2 °F 29.94 in NW 4.2 mph 9.2 mph 46 % 0.00 in
23:14 30.5 °F 12.2 °F 29.94 in NW 3.1 mph 11.5 mph 46 % 0.00 in
23:19 30.4 °F 11.6 °F 29.94 in NW 8.2 mph 12.7 mph 45 % 0.00 in
23:24 30.3 °F 12.0 °F 29.94 in WSW 3.5 mph 7.0 mph 46 % 0.00 in
23:29 30.3 °F 12.0 °F 29.94 in NW 4.5 mph 9.2 mph 46 % 0.00 in
23:34 30.3 °F 11.5 °F 29.93 in West 6.3 mph 9.2 mph 45 % 0.00 in
23:39 30.2 °F 12.4 °F 29.94 in West 6.2 mph 11.5 mph 47 % 0.00 in
23:44 30.1 °F 11.8 °F 29.93 in West 3.1 mph 8.1 mph 46 % 0.00 in
23:49 30.0 °F 12.2 °F 29.93 in NW 4.0 mph 5.8 mph 47 % 0.00 in
23:54 29.9 °F 12.6 °F 29.93 in NW 4.1 mph 6.0 mph 48 % 0.00 in
23:59 29.8 °F 12.5 °F 29.93 in WSW 2.7 mph 5.8 mph 48 % 0.00 in
Crab Meadow Weather
Compliments of Weather Underground - 3 mb

Script developed by  Jim McMurry - jmcmurry@mwt.net Adapted for the template by  Wim van der Kuil - Leuven-Template.eu

Weather Terms: Ice Storm Warning - Accumulations of 1/4 inch or more of freezing rain.